FW2567 Weather Reports


time (UTC)temp
F
wind
direction
speed
knots
gust
knots
rain 1hr
in
rain 24hr
in
rain mn
in
humidity
%
barometer
mb
20200531060030 50 217 3.5 0.0 0.00 0.13 0.00 75 1014.6
20200531054538 50 225 5.2 0.0 0.00 0.13 0.00 75 1014.6
20200531053032 50 227 3.5 0.0 0.00 0.13 0.00 75 1014.6
20200531051536 50 259 3.5 0.0 0.00 0.13 0.00 76 1014.6
20200531050034 50 255 1.7 0.0 0.00 0.13 0.00 75 1014.6
20200531044531 50 239 5.2 0.0 0.00 0.13 0.00 75 1014.6
20200531043031 50 217 6.1 0.0 0.00 0.13 0.00 74 1014.2
20200531041543 50 218 5.2 0.0 0.00 0.13 0.00 73 1014.2
20200531040034 50 238 4.3 0.0 0.00 0.13 0.00 71 1014.2
20200531034534 51 260 5.2 0.0 0.00 0.13 0.00 70 1014.2
20200531033036 51 304 6.1 0.0 0.01 0.13 0.00 70 1013.5
20200531031540 51 4 1.7 0.0 0.01 0.13 0.00 71 1013.1
20200531030044 51 238 2.6 0.0 0.01 0.13 0.00 73 1013.5
20200531024531 51 244 5.2 0.0 0.01 0.13 0.00 75 1013.5
20200531023033 50 242 3.5 0.0 0.00 0.12 0.00 77 1013.5
20200531021545 50 270 5.2 0.0 0.01 0.12 0.00 76 1013.1
20200531020049 50 281 7.0 0.0 0.01 0.12 0.00 75 1013.1
20200531014540 51 266 4.3 0.0 0.02 0.12 0.00 75 1013.1
20200531013037 51 281 7.0 0.0 0.03 0.12 0.00 76 1013.1
20200531011551 51 283 2.6 0.0 0.03 0.11 0.00 78 1012.8
20200531010034 51 305 5.2 0.0 0.04 0.11 0.00 79 1012.1
20200531004531 52 250 3.5 0.0 0.04 0.10 0.00 79 1012.1
20200531003047 52 271 5.2 0.0 0.04 0.09 0.00 78 1012.4
20200531001532 52 359 4.3 0.0 0.04 0.08 0.00 78 1012.1
20200531000033 52 77 3.5 0.0 0.04 0.07 0.00 79 1011.4
20200530234530 53 96 3.5 0.0 0.04 0.06 0.00 77 1011.0
20200530233031 52 46 4.3 0.0 0.05 0.05 0.00 79 1010.7
20200530231543 51 57 6.1 0.0 0.04 0.04 0.00 82 1010.0
20200530230031 52 64 6.1 0.0 0.03 0.03 0.00 77 1011.0
20200530224537 54 305 4.3 0.0 0.02 0.02 0.00 72 1011.4
20200530223054 55 47 4.3 0.0 0.00 0.00 0.00 70 1011.0
20200530221536 56 230 3.5 0.0 0.00 0.00 0.00 69 1010.3
20200530220037 56 166 3.5 0.0 0.00 0.00 0.00 68 1009.3
20200530214539 57 269 8.7 0.0 0.00 0.00 0.00 67 1008.9
20200530213103 58 287 8.7 0.0 0.00 0.00 0.00 66 1008.5
20200530211553 59 284 11.3 0.0 0.00 0.00 0.00 64 1008.5
20200530210033 60 280 10.4 0.0 0.00 0.00 0.00 64 1008.2
20200530204537 61 269 13.0 0.0 0.00 0.00 0.00 62 1007.8
20200530203030 64 264 10.4 0.0 0.00 0.00 0.00 60 1007.8
20200530201535 66 261 8.7 0.0 0.00 0.00 0.00 57 1007.1
20200530200040 69 256 9.6 0.0 0.00 0.00 0.00 54 1006.8
20200530194536 73 245 8.7 0.0 0.00 0.00 0.00 52 1006.4
20200530193028 75 253 8.7 0.0 0.00 0.00 0.00 52 1006.1
20200530191537 77 265 8.7 0.0 0.00 0.00 0.00 52 1005.7
20200530190031 77 258 7.8 0.0 0.00 0.00 0.00 53 1005.7
20200530184532 77 29 0.9 0.0 0.00 0.00 0.00 55 1005.7
20200530183039 76 56 0.9 0.0 0.00 0.00 0.00 56 1005.7
20200530181607 75 78 0.9 0.0 0.00 0.00 0.00 58 1006.1
20200530180047 73 126 0.9 0.0 0.00 0.00 0.00 61 1006.1
20200530174529 71 157 0.9 0.0 0.00 0.00 0.00 64 1006.4
20200530173115 70 234 0.0 0.0 0.00 0.00 0.00 65 1006.8
20200530171601 69 283 1.7 0.0 0.00 0.00 0.00 65 1006.8
20200530170034 69 326 1.7 0.0 0.00 0.00 0.00 65 1007.1
20200530164542 69 352 0.0 0.0 0.00 0.00 0.00 65 1007.5
20200530163046 70 16 1.7 0.0 0.00 0.00 0.00 63 1007.5
20200530161536 70 67 1.7 0.0 0.00 0.00 0.00 62 1007.8
20200530160031 68 94 1.7 0.0 0.00 0.00 0.00 66 1008.2
20200530154531 67 121 0.9 0.0 0.00 0.00 0.00 67 1008.5
20200530153035 66 95 0.0 0.0 0.00 0.00 0.00 70 1008.2
20200530151541 64 71 1.7 0.0 0.00 0.00 0.00 73 1008.5
20200530150119 64 78 1.7 0.0 0.00 0.00 0.00 74 1008.5
20200530144540 64 40 2.6 0.0 0.00 0.00 0.00 75 1008.9
20200530143034 63 200 2.6 0.0 0.00 0.00 0.00 78 1008.9
20200530141530 61 226 3.5 0.0 0.00 0.00 0.00 86 1008.9
20200530140029 60 37 3.5 0.0 0.00 0.00 0.00 87 1009.3
20200530134535 60 243 1.7 0.0 0.00 0.00 0.00 87 1008.9
20200530133036 59 206 1.7 0.0 0.00 0.00 0.00 88 1008.2
20200530131531 58 206 0.9 0.0 0.00 0.00 0.00 89 1008.2
20200530130059 58 115 0.9 0.0 0.00 0.00 0.00 89 1008.2
20200530124543 57 231 0.9 0.0 0.00 0.00 0.00 88 1008.5
20200530121536 58 101 0.0 0.0 0.00 0.00 0.00 87 1008.5
20200530120039 58 136 0.9 0.0 0.00 0.00 0.00 87 1008.9
20200530114529 58 242 0.9 0.0 0.00 0.00 0.00 87 1008.9
20200530113030 58 147 1.7 0.0 0.00 0.00 0.00 87 1008.9
20200530111532 57 139 2.6 0.0 0.00 0.00 0.00 88 1008.9
20200530110029 58 214 0.9 0.0 0.00 0.00 0.00 87 1008.5
20200530104532 58 151 0.9 0.0 0.00 0.00 0.00 87 1008.5
20200530103055 58 138 0.9 0.0 0.00 0.00 0.00 86 1008.5
20200530101616 58 122 0.9 0.0 0.00 0.00 0.00 86 1008.9
20200530100044 58 161 1.7 0.0 0.00 0.00 0.00 86 1009.3
20200530094602 58 161 1.7 0.0 0.00 0.00 0.00 86 1009.3
20200530093044 58 198 0.9 0.0 0.00 0.00 0.00 85 1009.6
20200530091531 59 121 0.9 0.0 0.00 0.00 0.00 85 1009.3
20200530090034 60 11 0.9 0.0 0.00 0.00 0.00 84 1010.0
20200530084530 60 112 0.0 0.0 0.00 0.00 0.00 84 1010.0
20200530083029 60 183 0.9 0.0 0.00 0.00 0.00 84 1010.3
20200530081528 60 244 0.0 0.0 0.00 0.00 0.00 84 1010.3
20200530080036 60 200 0.0 0.0 0.00 0.00 0.00 84 1010.3
20200530074530 60 164 0.9 0.0 0.00 0.00 0.00 84 1010.3
20200530073034 59 162 0.0 0.0 0.00 0.00 0.00 85 1010.3
20200530071549 59 141 1.7 0.0 0.00 0.00 0.00 86 1010.7
20200530070038 59 144 0.9 0.0 0.00 0.00 0.00 86 1010.7
20200530064612 59 180 0.0 0.0 0.00 0.00 0.00 86 1010.7
20200530063031 59 158 0.0 0.0 0.00 0.00 0.00 86 1010.7
20200530061545 59 155 1.7 0.0 0.00 0.00 0.00 85 1010.7